Probability
0 0 0 0 0 0 0 0 0 0 0 0 0 0 0 0 0 0 0 0 0 0 0 0 0 0 0 0 0 0 0 0 0 0 0 0 0 0 0 0 0 0 0
0 0 0 0 0 0 0 0 0 0 0 0 0 0 0 0 0 0 0 0 0 0 0 0 0 0 0 0 0 0 0 0 0 0 0 0 0 0 0 0 0 0 0
0 0 0 0 0 0 0 0 0 0 0 0 0 0 0 0 0 0 0 0 0 0 0 0 0 0 0 0 0 0 0 0 0 0 0 0 0 0 0 0 0 0 0
0 0 0 0 0 0 0 0 0 0 0 0 0 0 0 0 0 0 0 0 0 0 0 0 0 0 0 0 0 0 0 0 0 0 0 0 0 0 0 0 0 0 0
0 0 0 0 0 0 0 0 0 0 0 0 0 0 0 0 0 0 0 0 0 0 0 0 0 0 0 0 0 0 0 0 0 0 0 0 0 0 0 0 0 0 0
0 0 0 0 0 0 0 0 0 0 0 0 0 0 0 0 0 0 0 0 0 0 0 0 0 0 0 0 0 0 0 0 0 0 0 0 0 0 0 0 0 0 0
0 0 0 0 0 0 0 0 0 0 0 0 0 0 0 0 0 0 0 0 0 0 0 0 0 0 0 0 0 0 0 0 0 0 0 0 0 0 0 0 0 0 0
0 0 0 0 0 0 0 0 0 0 0 0 0 0 0 0 0 0 0 0 0 0 0 0 0 0 0 0 0 0 0 0 0 0 0 0 0 0 0 0 0 0 0
0 0 0 0 0 0 0 0 0 0 0 0 0 0 0 0 0 0 0 0 0 0 0 0 0 0 0 0 0 0 0 0 0 0 0 0 0 0 0 0 0 0 0
0 0 0 0 0 0 0 0 0 0 0 0 0 0 0 0 0 0 0 0 0 0 0 0 0 0 0 0 0 0 0 0 0 0 0 0 0 0 0 0 0 0 0
0 0 0 0 0 0 0 0 0 0 0 0 0 0 0 0 0 0 0 0 0 0 0 0 0 0 0 0 0 0 0 0 0 0 0 0 0 0 0 0 0 0 0
0 0 0 0 0 0 0 0 0 0 0 0 0 0 0 0 0 0 0 0 0 0 0 0 0 0 0 0 0 0 0 0 0 0 0 0 0 0 0 0 0 0 0
0 0 0 0 0 0 0 0 0 0 0 0 0 0 0 0 0 0 0 0 0 0 0 0 0 0 0 0 0 0 0 0 0 0 0 0 0 0 0 0 0 0 0
0 0 0 0 0 0 0 0 0 0 0 0 0 0 0 0 0 0 0 0 0 0 0 0 0 0 0 0 0 0 0 0 0 0 0 0 0 0 0 0 0 0 0
0 0 0 0 0 0 0 0 0 0 0 0 0 0 0 0 0 0 0 0 0 0 0 0 0 0 0 0 0 0 0 0 0 0 0 0 0 0 0 0 0 0 0
0 0 0 0 0 0 0 0 0 0 0 0 0 0 0 0 0 0 0 0 0 0 0 0 0 0 0 0 0 0 0 0 0 0 0 0 0 0 0 0 0 0 0
0 0 0 0 0 0 0 0 0 0 0 0 0 0 0 0 0 0 0 0 0 0 0 0 0 0 0 0 0 0 0 0 0 0 0 0 0 0 0 0 0 0 0
0 0 0 0 0 0 0 0 0 0 0 0 0 0 0 0 0 0 0 0 0 0 0 0 0 0 0 0 0 0 0 0 0 0 0 0 0 0 0 0 0 0 0
0 0 0 0 0 0 0 0 0 0 0 0 0 0 0 0 0 0 0 0 0 0 0 0 0 0 0 0 0 0 0 0 0 0 0 0 0 0 0 0 0 0 0
0 0 0 0 0 0 0 0 0 0 0 0 0 0 0 0 0 0 0 0 0 0 0 0 0 0 0 0 0 0 0 0 0 0 0 0 0 0 0 0 0 0 0
0 0 0 0 0 0 0 0 0 0 0 0 0 0 0 0 0 0 0 0 0 0 0 0 0 0 0 0 0 0 0 0 0 0 0 0 0 0 0 0 0 0 0
0 0 0 0 0 0 0 0 0 0 0 0 0 0 0 0 0 0 0 0 0 0 0 0 0 0 0 0 0 0 0 0 0 0 0 0 0 0 0 0 0 0 0
0 0 0 0 0 0 0 0 0 0 0 0 0 0 0 0 0 0 0 0 0 0 0 0 0 0 0 0 0 0 0 0 0 0 0 0 0 0 0 0 0 0 0
0 0 0 0 0 0 0 0 0 0 0 0 0 0 0 0 0 0 0 0 0 0 0 0 0 0 0 0 0 0 0 0 0 0 0 0 0 0 0 0 0 0 0
0 0 0 0 0 0 0 0 0 0 0 0 0 0 0 0 0 0 0 0 0 0 0 0 0 0 0 0 0 0 0 0 0 0 0 0 0 0 0 0 0 0 0
0 0 0 0 0 0 0 0 0 0 0 0 0 0 0 0 0 0 0 0 0 0 0 0 0 0 0 0 0 0 0 0 0 0 0 0 0 0 0 0 0 0 0
Wind_Speed
3 2 2 2 2 3 3 4 4 4 5 4 4 3 2 2 2 3 4 5 7 8 8 9 10 9 7 7 6 6 7 7 10 7 5 6 7 8 8 6 6 5 5
2 1 1 2 3 3 4 5 4 4 4 3 2 1 0 0 1 2 5 7 8 9 10 10 11 9 9 7 6 7 6 6 8 11 7 6 7 7 7 6 4 3 1
1 1 2 3 4 4 4 4 4 4 4 3 2 1 1 2 2 3 5 7 8 9 10 10 11 10 10 7 7 6 6 7 7 9 10 7 6 6 5 3 0 2 2
1 2 3 4 3 4 4 4 4 4 3 3 3 3 3 3 3 4 6 7 8 10 10 10 10 10 10 8 7 6 7 8 9 9 9 7 6 5 3 2 2 2 2
2 3 4 4 3 3 4 4 4 4 4 4 3 4 3 2 2 5 6 8 9 11 10 10 11 15 15 10 9 8 9 9 9 9 9 7 6 4 3 3 3 2 2
3 4 3 3 3 4 4 4 4 5 5 4 4 4 4 2 4 9 11 7 9 10 11 11 12 13 14 17 19 20 18 15 12 10 8 8 6 4 3 4 4 2 1
2 2 2 3 4 5 5 5 5 5 4 5 5 4 3 2 4 9 17 10 9 9 10 10 11 11 14 10 16 21 20 22 21 14 10 8 5 4 5 5 3 3 2
2 3 4 4 5 6 5 6 5 4 4 4 4 3 0 2 6 10 19 10 9 9 10 11 11 12 11 14 15 15 15 13 12 7 5 5 4 5 5 6 7 7 4
4 5 6 6 6 7 7 7 5 3 2 3 3 3 2 4 8 12 17 8 9 11 11 11 12 11 15 19 15 14 14 9 5 3 5 6 9 11 11 9 7 5 4
6 6 7 6 7 7 8 6 3 1 3 4 5 4 4 5 9 14 18 7 9 10 11 11 14 14 18 20 13 11 10 6 4 8 11 13 12 12 11 6 4 5 4
6 6 6 7 7 7 4 3 3 5 6 6 6 5 5 7 10 15 18 9 9 10 10 9 9 17 19 18 14 9 6 1 6 9 10 9 9 8 8 7 5 3 4
6 6 7 7 5 5 6 7 7 6 6 6 5 6 5 7 9 14 18 17 15 10 9 8 10 17 18 16 11 7 4 6 6 8 8 8 8 8 7 7 8 8 8
6 6 6 7 8 8 8 7 6 5 5 4 4 5 6 6 8 13 15 17 20 12 9 15 17 16 14 9 10 8 6 6 7 8 9 8 8 8 8 8 9 10 10
5 6 6 7 7 7 6 5 5 4 4 4 5 6 7 7 8 9 9 10 14 12 10 12 15 13 10 9 8 6 6 7 7 9 9 9 8 7 7 6 7 6 8
6 6 6 6 5 5 5 3 3 2 1 3 4 6 8 8 11 16 12 10 10 11 11 7 6 7 8 7 6 6 7 7 9 8 9 9 8 8 7 5 5 6 7
6 7 5 4 4 3 3 3 3 2 5 7 9 9 8 10 15 16 18 18 17 18 9 7 7 7 7 7 7 6 7 7 7 8 8 8 8 7 7 5 5 5 6
7 6 5 5 4 3 3 3 4 5 8 9 11 14 14 16 16 16 17 17 14 13 7 7 7 7 7 7 7 7 7 7 7 7 8 7 7 7 6 5 5 5 6
8 9 7 5 5 4 4 4 4 5 7 8 9 13 15 16 15 15 15 11 9 9 8 7 7 7 7 7 7 7 6 7 7 7 7 7 7 6 5 5 5 5 5
7 5 5 5 4 4 4 5 5 6 6 7 7 9 13 13 11 12 11 7 8 8 8 8 7 7 6 7 7 7 7 7 7 6 7 7 6 6 5 5 5 6 5
8 11 8 5 4 4 5 5 5 6 7 7 8 9 10 8 7 8 7 7 7 8 8 8 7 7 6 6 6 6 6 6 7 6 6 6 5 5 5 5 4 4 4
6 7 9 6 4 5 5 5 5 6 7 7 8 11 15 8 8 9 8 7 7 7 8 7 7 6 6 5 5 6 7 6 5 5 5 5 5 4 4 4 4 5 6
5 4 4 4 4 4 4 4 5 6 7 8 7 9 13 9 8 8 8 8 8 7 7 7 6 6 5 5 5 5 5 5 5 5 5 4 4 4 4 4 5 6 7
6 5 5 4 4 4 4 4 4 5 6 7 8 8 9 9 9 9 9 9 9 9 8 8 8 8 7 6 5 4 4 4 4 4 4 4 4 3 4 5 7 7 7
5 5 4 3 3 2 3 3 4 5 6 7 7 8 9 9 9 10 10 9 9 9 9 9 9 11 13 9 6 4 4 3 3 4 5 5 4 4 4 5 5 7 7
5 4 3 3 2 2 2 3 4 5 6 6 7 8 9 9 10 10 10 10 11 11 12 11 9 10 12 13 10 7 5 5 4 4 4 4 4 4 4 5 5 6 6
5 5 4 3 2 3 3 4 5 5 5 6 7 7 8 9 9 10 10 10 10 10 11 10 13 13 14 11 11 9 7 5 4 4 3 3 4 3 3 4 6 6 7
Wind_Direction
94 84 48 345 325 325 319 313 312 311 318 325 331 355 43 61 35 12 334 323 314 306 302 298 292 286 280 275 271 269 265 265 279 281 264 270 270 270 277 273 267 256 245
103 73 340 319 322 325 320 316 315 316 321 320 326 1 48 111 331 326 317 318 308 308 306 302 297 295 284 277 272 270 268 264 273 284 282 274 264 263 264 269 269 246 181
57 4 329 323 324 321 317 315 316 319 322 318 298 269 250 240 266 298 303 303 303 304 302 299 297 298 293 284 276 273 272 276 268 278 281 272 266 259 258 258 127 62 73
354 341 325 313 309 308 313 312 308 307 306 301 278 257 249 251 279 307 306 302 306 307 303 299 297 297 290 284 286 278 282 283 278 274 274 271 265 253 229 200 129 70 42
322 318 305 299 304 312 316 307 302 304 304 294 277 265 259 257 297 321 311 318 315 311 308 305 304 305 307 311 309 299 292 284 278 271 267 264 256 237 211 158 133 125 55
315 300 295 304 314 309 304 301 303 303 299 295 283 270 264 273 322 331 335 319 314 310 308 309 308 303 311 317 311 305 297 288 280 268 260 250 245 218 168 145 139 150 121
299 293 290 293 298 295 298 302 297 292 290 297 292 278 258 283 318 328 337 334 311 305 303 306 308 307 312 305 307 305 298 289 279 266 249 236 221 189 154 141 122 99 74
281 281 278 278 282 286 291 286 280 278 285 294 305 310 281 302 327 331 338 331 306 303 302 299 299 303 305 311 309 302 298 295 287 267 224 209 194 153 135 124 120 105 78
285 276 272 269 273 279 281 276 274 279 312 338 347 8 359 317 327 335 344 320 314 312 310 308 307 305 307 314 312 304 305 310 334 67 109 114 117 118 122 122 126 120 92
281 277 277 274 272 273 274 277 290 3 32 26 17 5 343 321 327 338 342 323 319 317 313 310 311 310 312 315 312 305 306 324 54 79 83 84 88 88 85 91 112 117 109
283 291 295 292 285 280 299 352 43 59 51 33 13 351 335 329 330 335 337 333 322 314 310 311 309 312 316 315 314 306 302 35 91 90 88 85 81 77 72 66 60 71 90
310 319 319 322 335 14 52 58 59 58 46 21 358 341 327 324 328 329 330 329 326 314 307 307 308 315 320 321 326 339 63 97 96 94 90 86 84 81 75 73 73 71 75
348 346 347 16 40 56 69 68 60 50 40 10 348 333 326 326 328 330 329 328 331 329 316 321 325 326 329 332 345 19 73 91 95 93 89 87 86 88 87 83 81 83 84
11 359 18 54 55 53 61 67 69 53 34 6 351 339 329 330 338 343 338 333 333 334 328 325 327 331 343 349 0 39 67 79 91 93 93 92 91 88 84 85 90 88 91
15 20 43 67 71 65 59 54 66 58 43 6 343 331 334 339 337 335 338 336 335 333 328 331 344 349 360 9 23 50 72 82 88 94 98 97 94 92 87 76 79 82 88
36 39 54 71 69 63 52 24 8 329 325 337 343 346 339 335 334 339 341 340 340 341 345 351 359 2 7 15 29 51 68 80 89 96 98 99 99 100 96 82 73 80 87
64 65 60 59 59 53 42 34 16 355 352 355 352 348 347 343 344 346 345 341 344 349 358 1 8 11 13 21 33 50 66 77 86 95 100 101 102 103 102 94 84 84 82
71 73 68 57 50 43 37 31 24 9 356 352 351 350 347 345 344 347 348 351 357 0 2 5 11 15 19 25 35 47 62 73 81 88 93 99 104 106 103 99 93 89 83
78 72 65 57 49 42 35 29 21 11 2 355 355 357 351 344 342 352 358 5 358 358 359 4 11 17 23 29 38 47 57 67 76 82 89 96 99 101 101 97 98 98 84
81 79 74 61 47 39 33 28 19 12 8 6 7 5 353 350 2 2 0 359 359 358 357 1 9 18 25 32 39 47 54 61 68 76 82 88 92 96 100 100 103 101 93
89 79 73 63 49 41 35 28 20 16 14 11 7 0 358 1 5 3 3 2 0 358 357 359 6 14 23 33 41 47 53 56 63 70 75 83 92 95 94 100 107 107 107
99 88 77 68 54 44 38 29 22 19 15 13 7 2 2 7 8 7 6 6 5 4 2 3 9 15 20 29 37 48 52 53 58 68 75 80 84 85 89 101 109 114 116
107 99 87 75 66 55 43 29 24 19 15 11 9 8 8 9 9 10 9 9 9 11 11 15 16 18 20 25 30 38 48 46 50 70 78 78 80 77 85 101 113 117 119
114 110 104 95 82 64 45 25 16 16 16 15 14 12 12 11 12 12 12 10 12 15 16 16 18 17 19 20 20 25 31 34 47 63 74 79 80 76 82 98 107 118 119
106 108 107 102 87 62 34 18 12 13 15 18 17 15 13 14 14 14 12 12 13 15 16 16 14 12 13 18 19 17 27 59 66 57 59 67 72 75 84 102 113 119 121
92 90 88 81 64 48 40 34 31 33 31 26 23 20 17 16 15 14 13 13 13 13 13 12 11 17 15 13 11 14 30 60 82 77 62 60 62 68 85 107 122 124 127